Flag for U.S.A. Weather past 2 weeks in Mobile, Alabama, U.S.A.

Now
87 °F

Thundershowers. Broken clouds.


Feels Like: 102 °F
Forecast: 73 / 86 °F
Wind: 10 mph from Southeast

Location: Mobile Downtown Airport

Current Time: Jul 25, 2014 at 1:31:08 PM

Latest Report: Jul 25, 2014 at 12:53 PM


Visibility: 10 mi

Pressure: 30.01 "Hg

Humidity: 77%

Dew point: 79 °F

Location of MobileLocation

Historic Weather in Mobile — Graph

°F

Mobile temperature yesterday

Maximum temperature yesterday: 87 °F (at 11:53 AM)
Minimum temperature yesterday: 72 °F (at 1:53 AM)
Average temperature yesterday: 79 °F

Past Weeks' High & Low Weather Summary

 TemperatureHumidityPressure
High92 °F (Jul 12, 1:53 PM)100% (Jul 11, 2:53 AM)30.16 "Hg (Jul 11, 2:53 AM)
Low64 °F (Jul 17, 5:53 AM)42% (Jul 16, 3:53 PM)29.90 "Hg (Jul 15, 5:53 PM)
Average79 °F84%30.03 "Hg
* Reported Jul 10 11:53 AM — Jul 25 11:53 AM, Mobile, Weather by CustomWeather, © 2014

Note: Actual official high and low records may vary slightly from our data, if they occured in-between our weather recording intervals... More about our weather records

Advertising

Mobile weather history for previous 24 hours

 ConditionsComfort  
Time TempWeatherWind HumidityBarometerVisibility
11:53 AM
Jul 25
82 °FBroken clouds.6 mph88%30.04 "Hg10 mi
10:53 AM86 °FScattered clouds.8 mph75%30.04 "Hg10 mi
9:53 AM84 °FScattered clouds.6 mph77%30.05 "Hg10 mi
8:53 AM84 °FPassing clouds.No wind77%30.03 "Hg10 mi
7:53 AM80 °FScattered clouds.No wind87%30.03 "Hg10 mi
6:53 AM75 °FPassing clouds.No wind96%30.01 "Hg9 mi
5:53 AM74 °FPassing clouds.No wind100%30.01 "Hg10 mi
4:53 AM74 °FClear.5 mph97%29.99 "Hg10 mi
3:53 AM74 °FClear.No wind97%29.98 "Hg10 mi
2:53 AM74 °FClear.3 mph97%29.98 "Hg10 mi
1:53 AM75 °FClear.5 mph96%30.00 "Hg10 mi
12:53 AM75 °FClear.3 mph96%30.00 "Hg10 mi
11:53 PM
Jul 24
76 °FClear.No wind94%30.01 "Hg10 mi
10:53 PM78 °FClear.3 mph87%30.01 "Hg10 mi
9:53 PM80 °FClear.No wind81%29.99 "Hg10 mi
8:53 PM79 °FClear.No wind82%29.99 "Hg10 mi
7:53 PM81 °FSunny.No wind77%29.98 "Hg10 mi
6:53 PM84 °FSunny.7 mph67%29.95 "Hg10 mi
5:53 PM86 °FSunny.5 mph63%29.94 "Hg10 mi
4:53 PM84 °FScattered clouds.3 mph72%29.96 "Hg10 mi
3:53 PM86 °FMostly cloudy.5 mph70%29.98 "Hg10 mi
2:53 PM83 °FCloudy.7 mph77%29.99 "Hg10 mi
1:53 PM83 °FBroken clouds.9 mph74%30.01 "Hg10 mi
Weather by CustomWeather, © 2014

See weather overviewHow to use our weather pages